Terminal Aerodrome Forecast
Issued by NWS

Home | Current Version | Previous Version | Text Only | Print | Product List | Glossary On
Versions: 1 2 3 4 5 6 7 8 9 10 11 12 13 14 15 16 17 18 19 20 21 22 23 24 25 26 27 28 29 30 31 32 33 34 35 36 37 38
000
FTUS43 KGRB 252300 AAA
TAFATW
TAF AMD
KATW 252300Z 2523/2618 29007G16KT P6SM VCSH SCT035 BKN050
      TEMPO 2523/2602 3SM TSRA BKN025CB
     FM260600 30007KT P6SM BKN060
     FM261200 31010G15KT P6SM BKN022=

USA.gov is the U.S. government's official web portal to all federal, state and local government web resources and services.